Orbital Elements at Epoch 2459200.5 (2020-Dec-17.0) TDB
Reference: JPL 14 (heliocentric ecliptic J2000)
Element | Value | Uncertainty (1-sigma) | Units |
e | .1500969705450872 | 5.0092e-08 | |
a | 2.38549471725045 | 1.2396e-08 | au |
q | 2.027439186939848 | 1.1816e-07 | au |
i | 1.670463695549023 | 4.6807e-06 | deg |
node | 84.59416976532675 | 0.00017916 | deg |
peri | 55.77862798893285 | 0.00017994 | deg |
M | 195.9988827172225 | 1.7099e-05 | deg |
tp | 2459813.570503544280 (2022-Aug-22.07050354) | 6.6011e-05 | TDB |
period | 1345.75535174795 3.68 | 1.049e-05 2.872e-08 | d yr |
n | .2675077602570258 | 2.0852e-09 | deg/d |
Q | 2.743550247561052 | 1.4257e-08 | au |
|
| | Orbit Determination Parameters
Additional Information
|